カタログに戻る

STARLINK-38139

運用中通信SSO
NORAD 100236·PAYLOAD·🇺🇸 United States

打ち上げ Aug 4, 2026 から Vandenberg Space Force Base

Loading…

次のパス (今後24時間)

TLE

最新Source: Space-Track

元期: Sep 14, 2026, 15:02 UTC

1 A0236U 26177Z   26257.62652210  .00021403  00000-0  39378-3 0  9993
2 A0236  97.2832 308.4059 0001715  83.4092 276.7355 15.49212841  6450

AllMySatでSTARLINK-38139をリアルタイム追跡

Download on the App Store